Location: Palomar Mountain Lodge
(33.3110°N, 116.8495°W)
Time: 08:17:34
(UTC-07:00)

Cosmos 1892 - Pass Details

Date: 12 July 2018
Orbit: 504 x 528 km, 82.5° (Epoch: 20 September)

Event Time Altitude Azimuth Distance (km) Brightness Sun altitude
Exits shadow 22:00:50 27° 54° (NE) 993 4.0 -21.2°
Drops below altitude 10° 22:03:05 10° 26° (NNE) 1,727 5.6 -21.6°
Sets 22:05:21 0° 17° (NNE) 2,621 6.7 -21.9°
